Terminal Aerodrome Forecast
Issued by NWS Knoxville/Tri Cities, TN

Home | Current Version | Previous Version | Text Only | Print | Product List | Glossary On
Versions: 1 2 3 4 5 6 7 8 9 10 11 12 13 14 15 16 17 18 19 20 21 22 23 24 25 26 27 28 29 30 31 32 33 34 35 36 37
000
FTUS44 KMRX 030018 AAA
TAFTYS
TAF AMD
KTYS 030018Z 0300/0324 24007KT P6SM VCTS SCT045CB BKN250
      TEMPO 0301/0304 VRB15G25KT 4SM TSRA BR BKN025CB
     FM030730 23004KT 3SM BR SCT040 BKN150
     FM031300 VRB05KT P6SM SCT045 BKN250=

USA.gov is the U.S. government's official web portal to all federal, state and local government web resources and services.